Regional Weather Roundup
Issued by NWS

Home | Current Version | Previous Version | Graphics & Text | Print | Product List | Glossary Off
Versions: 1 2 3 4 5 6 7 8 9 10 11 12 13 14 15 16 17 18 19 20 21 22 23 24 25 26 27 28 29 30 31 32 33 34 35 36 37 38 39 40 41 42 43 44 45 46 47 48 49 50

000
ASUS43 KMKX 271500
RWRWI

WISCONSIN REGIONAL WEATHER ROUNDUP
NATIONAL WEATHER SERVICE MILWAUKEE/SULLIVAN WI
1000 AM CDT TUE JUN 27 2017

NOTE: "FAIR" INDICATES FEW OR NO CLOUDS BELOW 12,000 FEET WITH NO
SIGNIFICANT WEATHER AND/OR OBSTRUCTIONS TO VISIBILITY.

WIZ001-002-006>008-014>016-023>028-271600-
NORTHWEST WISCONSIN

CITY           SKY/WX    TMP DP  RH WIND       PRES   REMARKS
SUPERIOR ARPT  NOT AVBL
ASHLAND        SUNNY     67  53  61 SW9       30.04F
HAYWARD        MOSUNNY   65  48  54 VRB3      30.07F
SIREN          SUNNY     65  45  47 W6        30.07F
CUMBERLAND     MOSUNNY   63  46  55 W6        30.09F
RICE LAKE      MOSUNNY   65  48  55 SW6       30.10F
CHETEK         MOSUNNY   65  53  65 W3        30.09F
LADYSMITH      SUNNY     66  49  53 W7        30.10S
EAU CLAIRE     NOT AVBL
MENOMONIE      SUNNY     68  49  51 W7        30.09F
NEW RICHMOND   SUNNY     67  50  53 SW7       30.09F
OSCEOLA        SUNNY     67  51  56 SW7       30.11F
$$

WIZ003>005-009-010-017-018-271600-
NORTH CENTRAL WISCONSIN

CITY           SKY/WX    TMP DP  RH WIND       PRES   REMARKS
MANITOWISH WTR SUNNY     64  49  57 W8        30.05F
ARBOR VITAE    SUNNY     64  51  64 W7        30.05F
WOODRUFF       SUNNY     64  51  64 W7        30.05F
RHINELANDER    SUNNY     64  52  64 W8        30.07S
EAGLE RIVER    SUNNY     64  49  57 W7        30.05S
LAND O LAKES   SUNNY     64  46  51 NW6       30.05F
PHILLIPS       SUNNY     64  50  59 W5        30.06F
TOMAHAWK       NOT AVBL
MEDFORD        SUNNY     62  48  60 W7        30.08F
MERRILL        SUNNY     66  50  57 NW6       30.07F
$$

WIZ029-030-035-036-043>047-271600-
CENTRAL WISCONSIN

CITY           SKY/WX    TMP DP  RH WIND       PRES   REMARKS
WAUSAU         SUNNY     67  48  50 NW12      30.06F
MOSINEE        NOT AVBL
MARSHFIELD     SUNNY     65  49  56 W10       30.09S
STEVENS POINT  SUNNY     64  46  53 NW8       30.09F
WAUPACA        SUNNY     68  49  49 W8        30.08F
WAUTOMA        SUNNY     68  49  50 W13       30.10F
WISC RAPIDS    SUNNY     68  49  50 NW13      30.10F
CAMP DOUGLAS   NOT AVBL
$$

WIZ011>013-019>022-031-037>040-048>050-271600-
NORTHEAST WISCONSIN

CITY           SKY/WX    TMP DP  RH WIND       PRES   REMARKS
ANTIGO         SUNNY     61  51  67 NW9       30.07F
SHAWANO        SUNNY     66  51  58 W3        30.06F
OCONTO         CLOUDY    63  51  66 W5        30.05F
STURGEON BAY     N/A     62  51  67 W6        30.05
GREEN BAY      MOSUNNY   65  54  67 W7        30.06F
MANITOWOC      NOT AVBL
APPLETON       MOSUNNY   64  46  52 W8        30.07S
CLINTONVILLE   SUNNY     66  50  55 W8        30.06F
OSHKOSH        SUNNY     66  50  56 W9        30.08F
$$

WIZ032>034-041-042-053>061-271600-
SOUTHWEST WISCONSIN

CITY           SKY/WX    TMP DP  RH WIND       PRES   REMARKS
LA CROSSE      SUNNY     71  51  49 VRB5      30.11F
SPARTA         SUNNY     64  51  63 CALM      30.12S
VIROQUA        SUNNY     65  48  55 W9        30.13F
BOSCOBEL       SUNNY     68  51  54 SW7       30.13F
PRAIRIE DU CHI SUNNY     66  49  53 S5        30.13F
PLATTEVILLE    SUNNY     67  49  53 SW8       30.15F
$$

WIZ056-057-062-063-064-067-068-271600-
SOUTH CENTRAL WISCONSIN

CITY           SKY/WX    TMP DP  RH WIND       PRES   REMARKS
REEDSBURG      SUNNY     66  48  52 W13       30.12S
BARABOO/DELLS  SUNNY     65  47  50 W9        30.12S
LONE ROCK      NOT AVBL
MINERAL POINT  SUNNY     68  45  42 W9        30.15R
MADISON        MOSUNNY   66  47  50 VRB7      30.12F
MIDDLETON      SUNNY     67  50  54 W8        30.13F
WATERTOWN      NOT AVBL
MONROE         SUNNY     66  43  42 W9        30.14S
JANESVILLE     SUNNY     68  46  45 W6        30.13S
$$

WIZ051-052-058>065-066-070>072-271600-
SOUTHEAST WISCONSIN

CITY           SKY/WX    TMP DP  RH WIND       PRES   REMARKS
MILWAUKEE      MOSUNNY   68  47  46 W10       30.11F
WAUKESHA       SUNNY     64  48  55 NW9       30.13R
MILWAUKEE/TIMM SUNNY     66  46  48 W9        30.11F
RACINE         SUNNY     67  48  50 NW6       30.12F
KENOSHA        SUNNY     67  48  50 NW10      30.12F
FOND DU LAC    SUNNY     68  46  45 W13       30.09F
SHEBOYGAN      SUNNY     66  53  63 W8        30.08F
WEST BEND      SUNNY     63  48  59 NW9       30.10F
JUNEAU         SUNNY     64  48  56 W5        30.12F
$$

LSZ147-162-271600-
LAKE SUPERIOR

STATION/POSITION TIME  TEMP    WIND        PRES    WAVE
                       AIR SEA DIR/SP/G            HT/PER
                 (UTC) (F)     (DEG/KT/KT) (MB)    (FT/S)
W MID LAKE BUOY  1350   43 39  230/  8/  8 1016.7R   1
DEVILS ISLAND    1400   55     230/ 14/ 15 1016.8F
SAXON HARBOR     1430   66     210/  2/  6 1016.6F
$$

LMZ867-665-643>646-271600-
LAKE MICHIGAN

STATION/POSITION TIME  TEMP    WIND        PRES    WAVE
                       AIR SEA DIR/SP/G            HT/PER
                 (UTC) (F)     (DEG/KT/KT) (MB)    (FT/S)
CHAMBERS ISLAND  1440   62     210/  3/  6 1016.9S
S GREEN BAY BUOY 1430   59     270/  6/  8 1017.7S
N MID LAKE BUOY  1350   56 55  270/  8/ 10 1017.5R   1/ 3
NORTHPORT PIER   1430   60     310/  5/  8 1016.9F
KEWAUNEE LAKESHO 1430   63     300/  6/ 10 1017.6S
SHEBOYGAN LAKESH 1400   62     290/ 12/ 13 1018.7R
PORT WASHINGTON  1440   67     320/  9/ 15 1020.0S
ATWATER BUOY     1309   60 56  270/  8/  8 1019.4R
MILWAUKEE LAKESH 1430   65     300/  4/  6   N/A
S MID LAKE BUOY  1350   60 61  310/ 10/ 12 1019.7R   1/ 3
KENOSHA   LAKESH 1400   63     270/  7/ 10 1020.0
$$

TC  - TEMPERATURE IN CELSIUS
VSB - VISIBILITY IN STATUTE MILES
WCI - WIND CHILL INDEX
HX  - HEAT INDEX





USA.gov is the U.S. government's official web portal to all federal, state and local government web resources and services.